Showing default

FLOCK 4G 32, 62643

Orbit data source: Space-Track

FLOCK 4G 32, 62643 is a payload satellite owned by Planet (US) in SSO that was launched on Tue, 14 Jan 2025 UTC via an FALCON 9 launch vehicle from the Air Force Western Test Range (AFWTR). Payload-class satellites include a variety of spacecraft equipped with specific instruments for various scientific and technological missions. These include communications satellites like Starlink; space stations such as the ISS; scientific satellites like the Hubble; Earth observation satellites from companies like Planet Labs, Umbra, and HawkEye 360; GPS; miniature CubeSats for education and research; and military/defense satellites.

Loading next visibility...
Identifier
62643, 2025-009AL
Orbit
SSO
Country
Flag of USUS
Related business
Manufacturer
Planet
Mission
Non-operational Commercial Imaging
Bus & Motor
CUBESAT 3U, Unknown motor
Mass
5.7 kg wet, 5.7 kg dry
Launch date (UTC)
2025-01-14 (1 year ago)
Launch vehicle
FALCON 9
Launch site
Air Force Western Test Range (AFWTR)
Object type
Payload
Rocket body
Debris
Shape & HBR
Box + 2 Pan, 1.0 m
Radar Cross Section
0.072 m², Medium (>0.1 m² and < 1m²)

Expand to show TLE details & history
Last TLE update: 17 hours ago

TLE from 17 hours ago
0 FLOCK 4G 32
1 62643U 25009AL  26127.22395184  .00168877  00000-0  11626-2 0  9994
2 62643  97.3823 214.8969 0004828 175.7822 184.3484 15.74118556 73047
Epoch: 2026-05-07T05:22Z
TLE epoch observation values (Epoch: 2026-05-07T05:22:29.438Z)
Latitude
-0.00005°
Longitude
-90.79892°
Altitude
353.543 km
Speed
7.695 km/s
True Right ascension
14h 19m 35s
True Declination
0° 00' 00"
Sunlit
Object was in full shadow at epoch
Visualization orbit readout
Latitude
Unknown
Longitude
Unknown
Altitude
Unknown
Speed
Unknown
Apparent Right ascension
Unknown
Apparent Declination
Unknown
Sunlit
N/A
Visualization observer readout
Local Sidereal Time
06:16:04
Azimuth
Unknown
Elevation
Unknown
Doppler factor
Unknown
Orbital elements
Apogee altitude
347.279 km
Perigee altitude
340.788 km
Semi-major axis
6,722.171 km
Eccentricity
0.00048
Inclination
97.3823°
RAAN
214.8969°
Arg. of periapsis
175.7822°
True anomaly
184.34421°
Mean anomaly
184.3484°
Eccentric anomaly
184.3463°
Mean motion
3.93803 °/min
Orbital period
91.42 mins
BSTAR
0.0011626
Loading maneuver chart data...
Computing Atmospheric mass density...
Loading historical data...
Loading historical data...
Loading historical data...
Loading historical data...
Loading historical data...
Loading historical data...
Loading historical data...

Documentation

Showing up to 5 results
|